Station DISW3 - Devils Island, WI Image indicating link to RSS feed of recent meteorological observations for station DISW3


Conditions at DISW3 as of
(4:00 am CDT)
0900 GMT on 06/14/2024:
     

Click on the graph icon in the table below to see a time series plot of the last five days of that observation.

5-day plot - Wind Direction Wind Direction (WDIR): W ( 270 deg true )
5-day plot - Wind Speed Wind Speed (WSPD): 10 kts
5-day plot - Wind Gust Wind Gust (GST): 10 kts
5-day plot - Atmospheric Pressure Atmospheric Pressure (PRES):29.99 in
5-day plot - Pressure Tendency Pressure Tendency (PTDY):+0.06 in ( Rising )
5-day plot - Air Temperature Air Temperature (ATMP): 55.9 °F
5-day plot - Dew Point Dew Point (DEWP): 52.2 °F
5-day plot - Wind Speed at 10 Meters Wind Speed at 10 meters (WSPD10M): 10 kts
5-day plot - Wind Speed at 20 Meters Wind Speed at 20 meters (WSPD20M): 10 kts
5-day plot -  Wind Speed, Wind Gust and Atmospheric Pressure Combined plot of Wind Speed, Gust, and Air Pressure
Continuous Winds
TIME
(CDT)
5-day plot - Wind Direction WDIR 5-day plot - Wind Speed WSPD
4:00 amW ( 267 deg ) 10 kts
3:50 amW ( 269 deg ) 11 kts
3:40 amW ( 262 deg ) 11 kts
3:30 amW ( 264 deg ) 9 kts
3:20 amWSW ( 254 deg ) 9 kts
3:10 amSW ( 234 deg ) 9 kts
 
Peak gust during the measurement hour
TIME
(CDT)
5-day plot - Gust Direction GDR 5-day plot - Gust Speed GST
3:40 amW ( 260 deg ) 12 kts
Previous observations
TIME
(CDT)
5-day plot - Wind Direction
WDIR
 
5-day plot - Wind Speed
WSPD
kts
5-day plot - Wind Gust
GST
kts
5-day plot - Wave Height
WVHT
ft
5-day plot - Dominant Wave Period
DPD
sec
5-day plot - Average Wave Period
APD
sec
5-day plot - Mean Wave Direction
MWD
 
5-day plot - Atmospheric Pressure
PRES
in
5-day plot - Pressure Tendency
PTDY
in
5-day plot - Air Temperature
ATMP
°F
5-day plot - Water Temperature
WTMP
°F
5-day plot - Dew Point
DEWP
°F
5-day plot - Salinity
SAL
psu
5-day plot - Visibility
VIS
nmi
5-day plot - Tide (above MLLW)
TIDE
ft
2024-06-14 03:00 am SW 7 7----29.96+0.04 54.0- 51.4---
2024-06-14 02:00 amWSW 7 8----29.94+0.04 52.9- 50.0---
2024-06-14 01:00 am W 10 11----29.93+0.04 53.8- 49.6---
2024-06-14 12:00 am W 9 10----29.92+0.05 53.4- 51.4---
2024-06-13 11:00 pmWSW 9 10----29.90+0.04 57.7- 51.4---
2024-06-13 10:00 pm SW 9 9----29.89+0.03 59.2- 51.6---
2024-06-13 09:00 pmWSW 11 12----29.87+0.02 58.1- 51.8---
2024-06-13 08:00 pm W 7 9----29.86+0.04 59.2- 51.6---
2024-06-13 07:00 pm W 12 13----29.86+0.06 56.7- 50.7---
2024-06-13 06:00 pmWNW 20 22----29.85+0.05 58.8- 49.6---
2024-06-13 05:00 pm NW 15 18----29.81+0.04 59.2- 46.4---
2024-06-13 04:00 pm W 9 10----29.80+0.04 60.1- 45.5---
2024-06-13 03:00 pm NW 20 24----29.80+0.05 57.4- 46.8---
2024-06-13 02:00 pm W 18 21----29.78+0.05 59.5- 45.3---
2024-06-13 01:00 pmWSW 16 18----29.75+0.05 57.6- 45.9---
2024-06-13 12:00 pmWSW 16 17----29.75+0.07 57.7- 48.0---
2024-06-13 11:00 am W 13 16----29.73+0.08 58.3- 48.9---
2024-06-13 10:00 amWSW 18 20----29.71+0.08 55.6- 53.1---
2024-06-13 09:00 amWSW 19 22----29.67+0.06 58.5- 57.4---
2024-06-13 08:00 amWSW 20 24----29.65+0.04 57.2- 57.0---
2024-06-13 07:00 amWSW 20 21----29.62+0.01 58.3- 58.3---
2024-06-13 06:00 amWSW 11 13----29.61+0.00 58.1- 58.1---
2024-06-13 05:00 amWSW 16 18----29.61+0.00 58.8- 58.8---
2024-06-13 04:00 amWSW 14 17----29.62+0.00 56.3- 56.3---